OpenBCM V2.0.2 (Linux)

Packet Radio Mailbox

IZ3LSV

[San Dona' di P. JN]

 Login: GUEST





  
LU9DCE > KEPS     14.07.18 19:50l 255 Lines 12633 Bytes #999 (0) @ WW
BID : 4874_LU9DCE
Read: GUEST
Subj: SAT TLE OF 14
Path: IZ3LSV<DB0ERF<DB0RES<IR2UBX<IW8PGT<CX2SA<ZL2BAU<GB7YEW<LU9DCE
Sent: 180514/0400Z 4874@LU9DCE.TOR.BA.ARG.SOAM BPQ6.0.16


            __    _  _  ___  ____   ___  ____    ____  ____  ____
           (  )  / )( \/ _ \(    \ / __)(  __)  (  _ \(  _ \/ ___)
           / (_/\) \/ (\__  )) D (( (__  ) _)    ) _ ( ) _ (\___ \
           \____/\____/(___/(____/ \___)(____)  (____/(____/(____/
               ESTACION DE PACKET RADIO - BUENOS AIRES (GF05OM)
                   BOLETINES INFORMATIVOS PROGRAMADOS (BIP)
                    LU9DCE@GMX.COM - RF 145070 @ 1200 BAUD
                    MAP LU9DCE lu9dce.dynu.com UDP 10093 B
            BPQ32 (*WINDOWS 7*) - TELNET LU9DCE.DYNU.COM PORT 8010

+------------------------------------------------------------------------------+
OSCAR 7
1 07530U 74089B   18133.55085549 -.00000042  00000-0  14070-4 0  9993
2 07530 101.6842 101.3944 0012481  43.6331  66.5438 12.53632542990257
OSCAR 11 (UoSAT 2)
1 14781U 84021B   18133.72456548  .00000082  00000-0  16223-4 0  9991
2 14781  97.6525 171.4040 0008243 185.7567 174.3554 14.83002598839335
OSCAR 19 (LUSAT)
1 20442U 90005G   18133.43785097 -.00000012 +00000-0 +11751-4 0  9998
2 20442 098.6083 072.1473 0010621 251.5476 108.4554 14.32894847478851
KITSAT B
1 22825U 93061C   18133.51648842 -.00000003 +00000-0 +16595-4 0  9996
2 22825 098.8601 109.0088 0009547 088.0151 272.2123 14.30029717284341
POSAT 1
1 22826U 93061D   18133.89109635 -.00000005  00000-0  15675-4 0  9990
2 22826  98.8543 109.4321 0010050  77.9163 282.3144 14.30361063284856
RADIO ROSTO
1 23439U 94085A   18133.23079362 -.00000049 +00000-0 -17967-3 0  9993
2 23439 064.8194 045.3667 0158282 188.4167 331.0223 11.27566752962628
JAS 2
1 24278U 96046B   18133.10557776 -.00000007  00000-0  29568-4 0  9994
2 24278  98.5203 336.6933 0349965 201.7917 156.8019 13.53083716 73498
TECHSAT 1B
1 25397U 98043D   18133.45280262 -.00000025 +00000-0 +81860-5 0  9991
2 25397 098.6478 074.4704 0002324 105.1262 255.0174 14.23645155030568
ISS (ZARYA)
1 25544U 98067A   18133.55965878 +.00079487 +00000-0 +11977-2 0  9991
2 25544 051.6395 191.3285 0003974 083.9302 021.4973 15.54083292113132
PCSAT
1 26931U 01043C   18133.88621763 -.00000020  00000-0  24022-4 0  9993
2 26931  67.0510 317.9164 0007378 279.2171  80.8095 14.30504506867646
SAUDISAT 1C
1 27607U 02058C   18133.50908373  .00000019  00000-0  23517-4 0  9990
2 27607  64.5547 196.0344 0061421 336.1063  23.7190 14.75447097827847
CUTE-1
1 27844U 03031E   18133.55348046  .00000065  00000-0  49152-4 0  9999
2 27844  98.6875 142.7198 0010984 109.7282 250.5081 14.22111477771278
CUBESAT XI 4
1 27848U 03031J   18133.57354705 +.00000049 +00000-0 +42001-4 0  9992
2 27848 098.6962 143.1261 0010792 118.9368 241.2893 14.21715676771110
MOZHAYETS 4
1 27939U 03042A   18133.87066887  .00000091  00000-0  24869-4 0  9998
2 27939  97.9850 273.9016 0011612 255.7474 219.9178 14.66683718781781
CUBESAT XI 5
1 28895U 05043F   18133.40856488 +.00000161 +00000-0 +39677-4 0  9997
2 28895 097.9043 286.2825 0017008 174.6345 185.5044 14.63542114668553
CUTE-1.7+APD II
1 32785U 08021C   18133.55344935  .00000269  00000-0  34805-4 0  9991
2 32785  97.5485 147.3832 0013954 147.5108 212.6971 14.88111807544023
DELFI C3
1 32789U 08021G   18133.23050830 +.00002066 +00000-0 +14568-3 0  9998
2 32789 097.5149 188.9216 0013802 062.0301 298.2321 15.05996022546424
SEEDS
1 32791U 08021J   18133.49717267 +.00000306 +00000-0 +36688-4 0  9996
2 32791 097.5380 152.6095 0014719 129.8406 230.4110 14.90538049544261
YUBELEINY
1 32953U 08025A   18133.83339323  .00000005  00000-0 -33064-4 0  9993
2 32953  82.5059  34.0443 0018230 286.9992  72.9090 12.43082895452505
PRISM (HITOMI)
1 33493U 09002B   18133.86052761  .00000654  00000-0  63549-4 0  9990
2 33493  98.1340  34.6281 0016562  70.3017 289.9991 14.96186493505212
KKS-1 (KISEKI)
1 33499U 09002H   18133.58970729 +.00000135 +00000-0 +27983-4 0  9994
2 33499 098.3553 314.2352 0010164 048.6496 311.5584 14.75324400499652
SWISSCUBE
1 35932U 09051B   18133.46108467  .00000150  00000-0  44903-4 0  9999
2 35932  98.5405 283.7963 0006754 324.1709  35.9034 14.56154071458387
BEESAT
1 35933U 09051C   18133.83433759  .00000115  00000-0  36961-4 0  9992
2 35933  98.5445 285.7043 0005226 340.5719  19.5278 14.56258812458543
ITUPSAT 1
1 35935U 09051E   18133.45721434 +.00000101 +00000-0 +34269-4 0  9996
2 35935 098.5556 285.5715 0007422 332.8276 027.2531 14.55436347458249
XIWANG-1 (HOPE-1)
1 36122U 09072B   18133.58224188 -.00000044 +00000-0 -61143-5 0  9996
2 36122 100.0772 149.8338 0007411 186.8523 173.2491 13.16344618403994
TISAT 1
1 36799U 10035E   18133.61679180 +.00000312 +00000-0 +37851-4 0  9991
2 36799 098.1010 268.9272 0011429 327.6263 032.4251 14.90780732424803
JUGNU
1 37839U 11058B   18133.45190024 +.00000345 +00000-0 +42027-4 0  9997
2 37839 019.9610 247.8800 0018782 224.0137 215.0196 14.12618809340340
SRMSAT
1 37841U 11058D   18133.48398098  .00000315  00000-0  27767-4 0  9995
2 37841  19.9725 296.1723 0011889 109.1447 290.5089 14.10605852339977
M-CUBED/EXP-1 PRIME
1 37855U 11061F   18133.68948138  .00001298  00000-0  74091-4 0  9995
2 37855 101.7188 178.5797 0176976 184.2892 175.6812 15.04331084356463
HORYU 2
1 38340U 12025D   18133.62592937  .00000230  00000-0  41922-4 0  9994
2 38340  98.3682 154.1569 0010704 326.9487  33.1051 14.75544872322016
STRAND 1
1 39090U 13009E   18133.80511495  .00000037  00000-0  28396-4 0  9995
2 39090  98.5252 340.6328 0010091  44.9526 315.2474 14.35023965272893
SOMP
1 39134U 13015E   18133.57267741 +.00001457 +00000-0 +78460-4 0  9991
2 39134 064.8649 238.8725 0015249 216.5901 143.4185 15.19090055279266
BEESAT 3
1 39135U 13015F   18133.60388775 +.00001360 +00000-0 +78822-4 0  9992
2 39135 064.8699 251.6829 0025332 238.5187 121.3463 15.16621560279019
BEESAT 2
1 39136U 13015G   18133.56147684  .00001078  00000-0  65552-4 0  9992
2 39136  64.8694 254.5108 0024085 238.9893 120.8867 15.16086065279342
CUBEBUG 1
1 39153U 13018D   18133.83748459  .00000206  00000-0  33956-4 0  9996
2 39153  97.9773 229.2873 0018193  60.3876 299.9145 14.80386898272511
ZACUBE
1 39417U 13066B   18133.85560457  .00000226  00000-0  35035-4 0  9996
2 39417  97.5899 164.3223 0057498 267.5637  91.8993 14.80924947241715
TRITON 1
1 39427U 13066M   18133.59858016 +.00000284 +00000-0 +53352-4 0  9995
2 39427 097.6407 131.8171 0114407 010.9841 349.3823 14.67654248239319
GOMX 1
1 39430U 13066Q   18133.87802660  .00000245  00000-0  52952-4 0  9996
2 39430  97.6953 113.2285 0153117  78.9419 282.8959 14.59067624238154
HUMSAT D
1 39433U 13066T   18133.69894616  .00000674  00000-0  71660-4 0  9994
2 39433  97.6067 191.2788 0030659 194.5107 165.5235 14.91837007243292
50 SAT
1 39436U 13066W   18133.85469710  .01251472  82361-3  25240-2 0  9997
2 39436  97.7084 269.3252 0015163 281.2751  78.6822 15.99606652247952
CUBEBUG 2
1 39440U 13066AA  18133.62661226  .00000227  00000-0  38830-4 0  9990
2 39440  97.6031 150.9125 0079219 308.5118  50.9007 14.75660171240820
FUNCUBE 1
1 39444U 13066AE  18133.66695563  .00000310  00000-0  44815-4 0  9992
2 39444  97.5909 165.6251 0056656 263.5661  95.9100 14.81699055240545
UWE-3
1 39446U 13066AG  18133.64083560  .00000227  00000-0  37059-4 0  9999
2 39446  97.5951 157.1363 0068676 288.8803  70.4971 14.78193779240011
SPROUT
1 39770U 14029E   18133.53129978 +.00001046 +00000-0 +12346-3 0  9992
2 39770 097.8741 234.8699 0008184 332.2799 027.7992 14.86812107215216
UNISAT 6
1 40012U 14033C   18133.58911757 +.00000233 +00000-0 +42375-4 0  9990
2 40012 097.8132 011.1344 0057445 311.9008 047.7309 14.73808676209607
DUCHIFAT 1
1 40021U 14033M   18133.54760759 +.00000369 +00000-0 +43907-4 0  9992
2 40021 097.9170 052.2028 0011657 296.7005 063.3018 14.90285393211795
QB50P1
1 40025U 14033R   18133.80133207  .00000284  00000-0  36480-4 0  9991
2 40025  97.9067  49.2680 0011263 302.6333  57.3796 14.88699004211676
CHUBUSAT 1
1 40300U 14070C   18133.76631413  .00000986  00000-0  46613-4 0  9993
2 40300  97.3651 212.1951 0021055  27.9291  88.6587 15.21533949195047
NUDT-PHONESAT
1 40900U 15049B   18133.57504830 +.00002502 +00000-0 +11506-3 0  9995
2 40900 097.4413 142.2293 0014572 144.2578 215.9636 15.21186230146659
ZDPS 2A
1 40901U 15049C   18133.84507981  .00000986  00000-0  53129-4 0  9998
2 40901  97.4592 140.7295 0014526 150.8832 209.3214 15.17034569146457
ZDPS 2B
1 40902U 15049D   18133.88010718  .00000959  00000-0  52036-4 0  9996
2 40902  97.4491 138.8428 0014672 148.0321 212.1805 15.16830146146447
XW-2A
1 40903U 15049E   18133.81370167  .00002321  00000-0  59392-4 0  9994
2 40903  97.3870 168.3237 0015191 148.4027 211.8134 15.40372137148517
KAITUO 1A
1 40904U 15049F   18133.73654628  .00000849  00000-0  48877-4 0  9992
2 40904  97.4599 137.9659 0015421 150.6375 319.9273 15.14992890146285
OBJECT G
1 40905U 15049G   18133.58243737 +.00000450 +00000-0 +28350-4 0  9993
2 40905 097.4588 135.9464 0016741 145.6511 214.5807 15.13946269146188
XW-2C
1 40906U 15049H   18133.58081275 +.00000748 +00000-0 +43302-4 0  9995
2 40906 097.4602 137.7079 0016010 144.7211 215.5084 15.15150630146251
XW-2D
1 40907U 15049J   18133.80082525  .00000810  00000-0  46426-4 0  9990
2 40907  97.4575 137.6247 0015432 141.7094 218.5237 15.15298760146294
LILACSAT 2
1 40908U 15049K   18133.56771688 +.00000420 +00000-0 +27007-4 0  9990
2 40908 097.4687 136.7994 0017012 144.4732 215.7636 15.13487242146131
XW-2F
1 40910U 15049M   18133.84225126  .00001209  00000-0  65374-4 0  9990
2 40910  97.4577 138.9183 0016276 137.8936 222.3550 15.16470564146253
XW-2B
1 40911U 15049N   18133.81707134  .00000767  00000-0  44209-4 0  9994
2 40911  97.4610 138.1656 0015335 142.1666 218.0648 15.15243704146199
KAITUO 1B
1 40912U 15049P   18133.70172729  .00001621  00000-0  81211-4 0  9993
2 40912  97.4516 141.5198 0016602 126.3493   0.6167 15.18680146146430
